Change the Weather History Date:

Thursday, January 3, 2013

  Actual Average Record
Temperature  
Mean Temperature 46 °F -  
Max Temperature 55 °F 61 °F 81 °F (2009)
Min Temperature 37 °F 42 °F 25 °F (2002)
Degree Days  
Heating Degree Days 19    
Moisture  
Dew Point 32 °F    
Average Humidity 60    
Maximum Humidity 79    
Minimum Humidity 30    
Precipitation  
Precipitation 0.00 in - - ()
Sea Level Pressure  
Sea Level Pressure 30.37 in    
Wind  
Wind Speed 10 mph (North)    
Max Wind Speed 14 mph    
Max Gust Speed 21 mph    
Visibility 10 miles    
Events      
Averages and records for this station are not official NWS values.
T = Trace of Precipitation, MM = Missing Value Source: NWS Daily Summary

Daily Weather History Graph

Daily Weather History Graph

Search for Another Location

Airport or City:

Trip Planner

Search our weather history database for the weather conditions in past years. The results will help you decide how hot, cold, wet, or windy it might be!

Date:

Astronomy

Jan. 03, 2013 Rise Set
Actual Time 7:17 AM CST 5:34 PM CST
Civil Twilight 6:51 AM CST 6:00 PM CST
Nautical Twilight 6:21 AM CST 6:30 PM CST
Astronomical Twilight 5:52 AM CST 6:59 PM CST
Moon 11:39 PM CST (1/3) 10:58 AM CST (1/3)
Length of Visible Light 11h 09m
Length of Day
10h 16m
Waning Gibbous, 65% of the Moon is Illuminated
Jan 3
Waning Gibbous
Jan 4
Last Quarter
Jan 11
New
Jan 18
First Quarter
Jan 26
Full

Hourly Weather History & Observations

Time (CST) Temp. Windchill Dew Point Humidity Pressure Visibility Wind Dir Wind Speed Gust Speed Precip Events Conditions
12:53 AM 41.0 °F 34.3 °F 34.0 °F 76% 30.31 in 10.0 mi North 11.5 mph - N/A   Overcast
1:53 AM 41.0 °F 34.7 °F 33.1 °F 73% 30.32 in 10.0 mi North 10.4 mph - N/A   Overcast
2:53 AM 39.9 °F 33.9 °F 33.1 °F 77% 30.33 in 10.0 mi North 9.2 mph - N/A   Overcast
3:53 AM 39.9 °F 33.9 °F 33.1 °F 77% 30.33 in 10.0 mi North 9.2 mph - N/A   Overcast
4:53 AM 39.0 °F 32.3 °F 33.1 °F 79% 30.34 in 10.0 mi North 10.4 mph - N/A   Overcast
5:53 AM 39.0 °F 32.8 °F 32.0 °F 76% 30.34 in 10.0 mi North 9.2 mph - N/A   Overcast
6:53 AM 39.0 °F 32.8 °F 32.0 °F 76% 30.37 in 10.0 mi North 9.2 mph - N/A   Mostly Cloudy
7:53 AM 39.0 °F 32.3 °F 32.0 °F 76% 30.40 in 10.0 mi NNE 10.4 mph - N/A   Mostly Cloudy
8:53 AM 41.0 °F 34.3 °F 32.0 °F 70% 30.42 in 10.0 mi NNE 11.5 mph - N/A   Mostly Cloudy
9:53 AM 43.0 °F 36.0 °F 32.0 °F 65% 30.43 in 10.0 mi NNE 13.8 mph - N/A   Mostly Cloudy
10:53 AM 45.0 °F 39.3 °F 30.9 °F 58% 30.40 in 10.0 mi NNE 11.5 mph - N/A   Scattered Clouds
11:53 AM 51.1 °F - 28.9 °F 43% 30.38 in 10.0 mi NNE 10.4 mph 20.7 mph N/A   Partly Cloudy
12:53 PM 52.0 °F - 28.0 °F 40% 30.33 in 10.0 mi NNE 13.8 mph - N/A   Mostly Cloudy
1:53 PM 55.9 °F - 28.9 °F 36% 30.32 in 10.0 mi North 11.5 mph - N/A   Overcast
2:53 PM 53.1 °F - 28.9 °F 40% 30.34 in 10.0 mi North 13.8 mph - N/A   Mostly Cloudy
3:53 PM 52.0 °F - 30.9 °F 45% 30.34 in 10.0 mi North 13.8 mph - N/A   Overcast
4:53 PM 51.1 °F - 32.0 °F 48% 30.37 in 10.0 mi North 11.5 mph - N/A   Overcast
5:53 PM 50.0 °F - 32.0 °F 50% 30.38 in 10.0 mi North 6.9 mph - N/A   Overcast
6:53 PM 50.0 °F - 33.1 °F 52% 30.40 in 10.0 mi North 6.9 mph - N/A   Overcast
7:53 PM 50.0 °F - 34.0 °F 54% 30.41 in 10.0 mi North 6.9 mph - N/A   Overcast
8:53 PM 48.9 °F - 35.1 °F 59% 30.41 in 10.0 mi North 5.8 mph - N/A   Overcast
9:53 PM 48.0 °F - 36.0 °F 63% 30.41 in 10.0 mi North 4.6 mph - N/A   Mostly Cloudy
10:53 PM 46.0 °F 43.1 °F 36.0 °F 68% 30.40 in 10.0 mi NNE 5.8 mph - N/A   Mostly Cloudy
11:53 PM 45.0 °F 41.8 °F 36.0 °F 71% 30.38 in 10.0 mi NNE 5.8 mph - N/A   Scattered Clouds